When you browse on this site, cookies collect data to enhance your experience and personalize the content and advertising you see.
Visit our Privacy Policy to learn more. By continuing to use the site, you agree to this use of cookies and data.
  • In Romania
  • List of Countries
  • For 7 days
  • Water Temperature
  • Satellite Maps
  • Weather Map
  • Weather Widgets
  • user-avatar
    Login

    Hourly Weather Atlantic City

    Today, 15 December, Saturday

    Time Temperature Precipitation Wind Pressure Humidity
    00:00 +10°C° 0.6 mm 3 mps 767 mmHg 97%
    01:00 +10°C° 0 mm 2 mps 767 mmHg 96%
    02:00 +10°C° 0.4 mm 2 mps 766 mmHg 97%
    03:00 +10°C° 0.4 mm 3 mps 766 mmHg 98%
    04:00 +10°C° 0.4 mm 3 mps 765 mmHg 98%
    05:00 +10°C° 0.5 mm 4 mps 765 mmHg 98%
    06:00 +11°C° 0.5 mm 4 mps 765 mmHg 98%
    07:00 +11°C° 0 mm 4 mps 764 mmHg 98%
    08:00 +11°C° 1 mm 4 mps 763 mmHg 98%
    09:00 +12°C° 1 mm 4 mps 763 mmHg 97%
    10:00 +12°C° 1 mm 5 mps 763 mmHg 97%
    11:00 +12°C° 0.5 mm 5 mps 763 mmHg 96%
    12:00 +12°C° 0.5 mm 5 mps 763 mmHg 95%
    13:00 +11°C° 0.5 mm 6 mps 762 mmHg 95%
    14:00 +11°C° 0.8 mm 6 mps 762 mmHg 94%
    15:00 +10°C° 0.8 mm 7 mps 762 mmHg 94%
    16:00 +10°C° 0.8 mm 7 mps 762 mmHg 94%
    17:00 +10°C° 1 mm 7 mps 762 mmHg 93%
    18:00 +10°C° 1 mm 7 mps 762 mmHg 93%
    19:00 +9°C° 1 mm 7 mps 762 mmHg 93%
    20:00 +9°C° 0.8 mm 8 mps 762 mmHg 92%
    21:00 +8°C° 0.8 mm 9 mps 761 mmHg 91%
    22:00 +8°C° 0.8 mm 10 mps 761 mmHg 90%
    23:00 +8°C° 1.7 mm 10 mps 761 mmHg 89%

    Tomorrow, 16 December, Sunday

    Time Temperature Precipitation Wind Pressure Humidity
    00:00 +7°C° 1.7 mm 11 mps 761 mmHg 88%
    01:00 +6°C° 1.7 mm 11 mps 760 mmHg 87%
    02:00 +6°C° 2.7 mm 11 mps 760 mmHg 88%
    03:00 +6°C° 2.7 mm 10 mps 759 mmHg 89%
    04:00 +6°C° 2.7 mm 10 mps 759 mmHg 91%
    05:00 +6°C° 1.2 mm 10 mps 759 mmHg 90%
    06:00 +5°C° 1.2 mm 10 mps 759 mmHg 89%
    07:00 +5°C° 1.2 mm 10 mps 759 mmHg 88%
    08:00 +4°C° 0.7 mm 11 mps 759 mmHg 88%
    09:00 +4°C° 0.7 mm 12 mps 758 mmHg 87%
    10:00 +4°C° 0.7 mm 12 mps 758 mmHg 86%
    11:00 +4°C° 0.2 mm 11 mps 757 mmHg 85%
    12:00 +6°C° 0.2 mm 10 mps 756 mmHg 85%
    13:00 +6°C° 0.2 mm 9 mps 755 mmHg 85%
    14:00 +6°C° 0.3 mm 9 mps 755 mmHg 86%
    15:00 +6°C° 0.3 mm 8 mps 755 mmHg 87%
    16:00 +5°C° 0.3 mm 7 mps 755 mmHg 89%
    17:00 +5°C° 0.6 mm 8 mps 755 mmHg 88%
    18:00 +3°C° 0.6 mm 9 mps 755 mmHg 88%
    19:00 +3°C° 0.6 mm 10 mps 755 mmHg 88%
    20:00 +3°C° 0.1 mm 9 mps 755 mmHg 87%
    21:00 +2°C° 0.1 mm 8 mps 755 mmHg 87%
    22:00 +2°C° 0.1 mm 8 mps 755 mmHg 86%
    23:00 +3°C° 0 mm 7 mps 755 mmHg 86%

    Day after tomorrow, 17 December, Monday

    Time Temperature Precipitation Wind Pressure Humidity
    00:00 +2°C° 0 mm 7 mps 756 mmHg 86%
    01:00 +2°C° 0 mm 6 mps 756 mmHg 86%
    02:00 +2°C° 0 mm 6 mps 756 mmHg 86%
    03:00 +2°C° 0 mm 6 mps 756 mmHg 87%
    04:00 +1°C° 0 mm 6 mps 756 mmHg 88%
    05:00 +1°C° 0 mm 6 mps 756 mmHg 88%
    06:00 +1°C° 0 mm 6 mps 756 mmHg 89%
    07:00 +1°C° 0 mm 6 mps 756 mmHg 89%
    08:00 +2°C° 0 mm 7 mps 756 mmHg 83%
    09:00 +3°C° 0 mm 7 mps 756 mmHg 77%
    10:00 +4°C° 0 mm 7 mps 756 mmHg 71%
    11:00 +5°C° 0 mm 7 mps 756 mmHg 67%
    12:00 +6°C° 0 mm 8 mps 755 mmHg 62%
    13:00 +7°C° 0 mm 8 mps 755 mmHg 58%
    14:00 +6°C° 0 mm 9 mps 755 mmHg 58%
    15:00 +5°C° 0 mm 9 mps 755 mmHg 58%
    16:00 +3°C° 0 mm 10 mps 755 mmHg 59%
    17:00 +3°C° 0 mm 10 mps 756 mmHg 57%
    18:00 +2°C° 0 mm 10 mps 757 mmHg 55%
    19:00 +1°C° 0 mm 10 mps 757 mmHg 53%
    20:00 0°C° 0 mm 10 mps 758 mmHg 54%
    21:00 0°C° 0 mm 10 mps 758 mmHg 56%
    22:00 -2°C° 0 mm 10 mps 759 mmHg 57%
    23:00 -2°C° 0 mm 10 mps 759 mmHg 57%

    18 December, Tuesday

    Time Temperature Precipitation Wind Pressure Humidity
    00:00 -3°C° 0 mm 10 mps 759 mmHg 57%
    01:00 -4°C° 0 mm 10 mps 759 mmHg 58%
    02:00 -4°C° 0 mm 9 mps 760 mmHg 58%
    03:00 -4°C° 0 mm 9 mps 760 mmHg 58%
    04:00 -5°C° 0 mm 9 mps 761 mmHg 58%
    05:00 -5°C° 0 mm 9 mps 761 mmHg 58%
    06:00 -5°C° 0 mm 9 mps 762 mmHg 58%
    07:00 -5°C° 0 mm 9 mps 763 mmHg 58%
    08:00 -4°C° 0 mm 9 mps 763 mmHg 54%
    09:00 -3°C° 0 mm 9 mps 764 mmHg 51%
    10:00 -1°C° 0 mm 9 mps 764 mmHg 48%
    11:00 -1°C° 0 mm 8 mps 764 mmHg 46%
    12:00 0°C° 0 mm 8 mps 764 mmHg 44%
    13:00 +1°C° 0 mm 8 mps 764 mmHg 42%
    14:00 +2°C° 0 mm 7 mps 764 mmHg 44%
    15:00 0°C° 0 mm 7 mps 764 mmHg 45%
    16:00 +1°C° 0 mm 6 mps 764 mmHg 47%
    17:00 -1°C° 0 mm 6 mps 765 mmHg 51%
    18:00 -2°C° 0 mm 6 mps 765 mmHg 55%
    19:00 -3°C° 0 mm 6 mps 766 mmHg 59%
    20:00 -2°C° 0 mm 5 mps 766 mmHg 61%
    21:00 -2°C° 0 mm 5 mps 766 mmHg 62%
    22:00 -4°C° 0 mm 5 mps 766 mmHg 63%
    23:00 -4°C° 0 mm 5 mps 766 mmHg 64%

    19 December, Wednesday

    Time Temperature Precipitation Wind Pressure Humidity
    00:00 -4°C° 0 mm 5 mps 766 mmHg 65%
    01:00 -3°C° 0 mm 4 mps 766 mmHg 65%
    02:00 -3°C° 0 mm 4 mps 766 mmHg 66%
    03:00 -3°C° 0 mm 4 mps 766 mmHg 66%
    04:00 -3°C° 0 mm 4 mps 766 mmHg 66%
    05:00 -3°C° 0 mm 4 mps 766 mmHg 66%
    06:00 -2°C° 0 mm 3 mps 766 mmHg 66%
    07:00 -2°C° 0 mm 3 mps 766 mmHg 66%
    08:00 0°C° 0 mm 3 mps 766 mmHg 61%
    09:00 +1°C° 0 mm 3 mps 766 mmHg 56%
    10:00 +3°C° 0 mm 4 mps 766 mmHg 51%
    11:00 +4°C° 0 mm 4 mps 766 mmHg 51%
    12:00 +5°C° 0 mm 5 mps 765 mmHg 50%
    13:00 +6°C° 0 mm 5 mps 765 mmHg 49%
    14:00 +5°C° 0 mm 5 mps 764 mmHg 56%
    15:00 +5°C° 0 mm 5 mps 764 mmHg 62%
    16:00 +3°C° 0 mm 5 mps 764 mmHg 68%
    17:00 +2°C° 0 mm 5 mps 764 mmHg 73%
    18:00 +1°C° 0 mm 5 mps 764 mmHg 78%
    19:00 0°C° 0 mm 5 mps 764 mmHg 83%
    20:00 0°C° 0 mm 5 mps 764 mmHg 82%
    21:00 0°C° 0 mm 5 mps 764 mmHg 81%
    22:00 0°C° 0 mm 5 mps 764 mmHg 80%
    23:00 0°C° 0 mm 5 mps 763 mmHg 81%

    20 December, Thursday

    Time Temperature Precipitation Wind Pressure Humidity
    00:00 0°C° 0 mm 5 mps 763 mmHg 82%
    01:00 0°C° 0 mm 5 mps 763 mmHg 83%
    02:00 0°C° 0 mm 4 mps 763 mmHg 84%
    03:00 0°C° 0 mm 4 mps 763 mmHg 85%
    04:00 0°C° 0 mm 4 mps 763 mmHg 87%
    05:00 0°C° 0 mm 4 mps 763 mmHg 88%
    06:00 +1°C° 0 mm 3 mps 763 mmHg 88%
    07:00 +1°C° 0 mm 3 mps 763 mmHg 89%
    08:00 +3°C° 0 mm 3 mps 763 mmHg 84%
    09:00 +4°C° 0 mm 3 mps 763 mmHg 80%
    10:00 +6°C° 0 mm 4 mps 763 mmHg 75%
    11:00 +7°C° 0 mm 4 mps 763 mmHg 74%
    12:00 +8°C° 0 mm 4 mps 762 mmHg 73%
    13:00 +11°C° 0 mm 4 mps 761 mmHg 73%
    14:00 +10°C° 0.1 mm 4 mps 761 mmHg 78%
    15:00 +9°C° 0.1 mm 5 mps 760 mmHg 84%
    16:00 +8°C° 0.1 mm 5 mps 760 mmHg 90%
    17:00 +9°C° 0.4 mm 6 mps 760 mmHg 92%
    18:00 +10°C° 0.4 mm 7 mps 759 mmHg 94%
    19:00 +11°C° 0.4 mm 7 mps 759 mmHg 96%
    20:00 +11°C° 1.5 mm 8 mps 758 mmHg 96%
    21:00 +12°C° 1.5 mm 8 mps 757 mmHg 96%
    22:00 +12°C° 1.5 mm 8 mps 756 mmHg 96%
    23:00 +12°C° 2.2 mm 9 mps 755 mmHg 95%
    Show more